ICS-EF

Last updated on Sat Apr 11 2020 01:02:10 GMT+0100 (British Summer Time)

1 45265U 98067RJ 20101.08947373 .00002490 00000-0 52575-4 0 9990 2 45265 51.6461 325.3576 0006641 113.4102 246.7542 15.49453122 7572
UTC large
Height (km)
Speed (km/s)
/
Latitude / Longitude
Inclination (degrees)
Orbital Period (minutes)
Azimuth
Elevation
Range (km)
Doppler Factor

Next 0 passes for location: London (51.5072 / 0.1276)

Sorry there are no passes over London.